Details From WBSB - Brunei Intl
To WBKK - Kota Kinabalu Intl
Flight Number -
Tags generated
Created
Modified
Stats Distance 90 nm / 167 km
Max Altitude 500 ft / 152 m
Waypoints 3
Social Downloads 5
Likes 0
Share VATSIM

Download

Looking for another format? Having issues loading an existing format? Contact us
Advertisement - Login to hide

Notes

Basic altitude profile: - Ascent Rate: 2500ft/min - Ascent Speed: 250kts - Cruise Altitude: 35000ft - Cruise Speed: 447kts - Descent Rate: 1800ft/min - Descent Speed: 250kts Options: - Use NATs: yes - Use PACOTS: yes - Use low airways: no - Use high airways: yes

Route

WBSB VJN WBKK

ID Type Via Altitude Latitude Longitude Leg Dist Tot Dist Heading (true) Name
O WBSB APT - 0 ft / 0 m 4.94417˚ 114.92833˚ - 0 nm - Brunei Intl
VJN VOR - 500 ft / 152 m 5.89967˚ 116.02994˚ 87 nm 87 nm 49° / 49° KOTA KINABALU VOR-DME
O WBKK APT - 0 ft / 0 m 5.93721˚ 116.05118˚ 2 nm 89 nm 29° / 29° Kota Kinabalu Intl

Altitude Profile

Advertisement - Login to hide

WBSB

Details ICAO WBSB (BWN)
Name Brunei Intl
Region Brunei and Malaysia
Timezone Asia/Brunei (UTC+8.0)
Stats Elevation 73 ft / 22 m (AMSL)
Location 4.944172° 114.928327°
Runways 1
Magnetic Variation 0.212° W

METAR

WBSB 181100Z 26005KT 9999 FEW015 SCT140 BKN280 27/24 Q1008 NOSIG

Decode

TAF

TAF WBSB 180500Z 1806/1912 26012KT 9999 SCT015 FEW016CB TEMPO 1809/1812 7000 SHRA TSRA BECMG 1811/1813 20005KT SCT014 FEW015CB

Decode

Departure Runways

ID Width Length Bearing (true) Bearing (mag) Surface Threshold Offset Overrun Length
03 151 ft / 46 m 12,044 ft / 3,671 m 30.90° 31.11° Asphalt 0 ft / 0 m 69 ft / 21 m
21 151 ft / 46 m 12,044 ft / 3,671 m 210.90° 211.11° Asphalt 0 ft / 0 m 69 ft / 21 m

WBKK

Details ICAO WBKK (BKI)
Name Kota Kinabalu Intl
Region Brunei and Malaysia
Timezone Asia/Kuching (UTC+8.0)
Stats Elevation 10 ft / 3 m (AMSL)
Location 5.937208° 116.051181°
Runways 1
Magnetic Variation 0.409° W

METAR

WBKK 181030Z 21004KT 180V240 9999 FEW013 SCT040 BKN270 26/24 Q1007 NOSIG

Decode

TAF

TAF WBKK 180500Z 1806/1906 23008KT 9999 FEW014 TEMPO 1807/1813 3000 RA FEW012 FEW016CB SCT035

Decode

Destination Runways

ID Width Length Bearing (true) Bearing (mag) Surface Threshold Offset Overrun Length
02 150 ft / 46 m 9,836 ft / 2,998 m 22.73° 23.14° Asphalt 1,600 ft / 488 m 0 ft / 0 m
20 150 ft / 46 m 9,836 ft / 2,998 m 202.73° 203.14° Asphalt 200 ft / 61 m 0 ft / 0 m

Approach Navaids

Runway Type Ident Frequency Range Bearing (true) Bearing (mag) Slope Elevation
02 Localiser IKKS 110.30 MHz 18 nm / 33 km 22.73° 23.14° - 10 ft / 3 m (AMSL)
02 Glidescope IKKS 110.30 MHz 10 nm / 19 km 22.73° 23.14° 3.00° 10 ft / 3 m (AMSL)
02 DME IKKS 110.30 MHz 18 nm / 33 km - - - 10 ft / 3 m (AMSL)

Popular Alternatives